Regional Weather Roundup
Issued by NWS

Home | Current Version | Previous Version | Graphics & Text | Print | Product List | Glossary On
Versions: 1 2 3 4 5 6 7 8 9 10 11 12 13 14 15 16 17 18 19 20 21 22 23 24 25 26 27 28 29 30 31 32 33 34 35 36 37 38 39 40 41 42 43 44 45 46 47 48 49 50
000
ASUS43 KLSX 020407
RWRMO

WEATHER SUMMARY FOR MISSOURI
NATIONAL WEATHER SERVICE SPRINGFIELD MO
1100 PM CDT MON JUN 01 2015

NOTE: "FAIR" INDICATES FEW OR NO CLOUDS BELOW 12,000 FEET WITH NO
       SIGNIFICANT WEATHER AND/OR OBSTRUCTIONS TO VISIBILITY.
       CURRENT SKY AND/OR WEATHER CONDITIONS ARE NOT AVAILABLE FOR
       CHILLICOTHE AND FARMINGTON.

MOZ001>031-035>038-043-044-053-054-020500-
...NORTHERN AND WESTERN MISSOURI...

CITY           SKY/WX    TMP DP  RH WIND       PRES   REMARKS
KANSAS CTY INT CLOUDY    61  54  77 SE12      30.13R
KANSAS C DTWN  CLOUDY    62  52  69 SE7       30.13R
LEE`S SUMMIT   CLOUDY    60  53  77 E7        30.14R
ST JOSEPH      CLOUDY    63  54  72 SE10      30.13R
CHILLICOTHE      N/A     62  54  74 SE5       30.16R
KIRKSVILLE     MOCLDY    56  55  97 CALM      30.16S

$$
MOZ066>068-077>081-088>096-101>105-020500-
...SOUTHWEST MISSOURI...

CITY           SKY/WX    TMP DP  RH WIND       PRES   REMARKS
SPRINGFIELD    CLEAR     58  54  86 E6        30.12R
JOPLIN         CLEAR     60  56  86 E7        30.11R

$$
MOZ032>034-039>042-045>050-055>058-069>072-020500-
...CENTRAL MISSOURI...

CITY           SKY/WX    TMP DP  RH WIND       PRES   REMARKS
COLUMBIA       CLOUDY    59  55  87 SE6       30.15S
JEFFERSON CITY CLOUDY    60  55  83 E3        30.15R
ROLLA          CLOUDY    57  56  96 E3        30.14S FOG
SEDALIA        CLOUDY    61  54  77 SE5       30.15R
WHITEMAN AFB   CLOUDY    60  54  80 SE5       30.14R
WARRENSBURG    CLOUDY    59  54  82 E3        30.14R
OSAGE BEACH    CLOUDY    59  54  82 CALM      30.14F

$$
MOZ051-052-059>065-020500-
...EAST CENTRAL MISSOURI...

CITY           SKY/WX    TMP DP  RH WIND       PRES   REMARKS
ST LOUIS INTL  CLOUDY    63  56  78 N3        30.15S
SPIRIT OF STL  CLOUDY    60  58  92 CALM      30.13F
ST CHARLES     CLOUDY    63  57  81 CALM      30.14S

$$
MOZ072>076-082>087-097>100-106>115-020500-
...SOUTH CENTRAL AND SOUTHEAST MISSOURI...

CITY           SKY/WX    TMP DP  RH WIND       PRES   REMARKS
CAPE GIRARDEAU CLOUDY    62  57  83 N6        30.12S
FARMINGTON     CLOUDY    59  55  88 CALM      30.17F
POPLAR BLUFF   CLOUDY    61  58  90 N6        30.11S
WEST PLAINS    CLOUDY    59  55  87 NE8       30.14R

$$



USA.gov is the U.S. government's official web portal to all federal, state and local government web resources and services.